Overview Statistics Trail Chart Weather Telemetry Raw packets
 

This is the latest recevied weather packets stored in our database for station/object JH5EWP-13. If no packets are shown the sender has not sent any weather packets the latest 10 day(s).

<< 1 2 3 4 >>
Time Temp. Humidity Pressure Rain* Wind** Luminosity Snow
1788499341 23.33° C 48% 999.6 hPa 2.79 mm - - -
1788497541 23.33° C 48% 999.9 hPa 2.79 mm - - -
1788495741 23.33° C 49% 999.5 hPa 3.56 mm - - -
1788493940 23.33° C 49% 999.4 hPa 2.54 mm - - -
1788492141 23.33° C 49% 999.6 hPa 2.29 mm - - -
1788490341 23.89° C 49% 999.1 hPa 1.78 mm - - -
1788488540 23.89° C 49% 999.4 hPa 1.78 mm - - -
1788486741 23.33° C 49% 999.8 hPa 2.03 mm - - -
1788484940 23.89° C 49% 998.9 hPa 1.02 mm - - -
1788483141 23.89° C 49% 999.4 hPa 0.51 mm - - -
1788481340 23.33° C 49% 999.6 hPa 1.02 mm - - -
1788479542 23.33° C 49% 999.8 hPa 2.03 mm - - -
1788477742 23.33° C 49% 999.9 hPa 2.79 mm - - -
1788475940 23.33° C 48% 1000.6 hPa 1.78 mm - - -
1788474142 23.89° C 49% 1000.5 hPa 0.25 mm - - -
1788472342 23.33° C 49% 999.9 hPa 0 mm - - -
1788470541 23.33° C 49% 999.7 hPa 0 mm - - -
1788468741 23.33° C 50% 999.5 hPa 0 mm - - -
1788466942 23.33° C 50% 999.5 hPa 0 mm - - -
1788465141 23.33° C 50% 999.6 hPa 0.25 mm - - -
1788463341 23.33° C 50% 999.8 hPa 0.51 mm - - -
1788461541 23.33° C 50% 999.7 hPa 1.02 mm - - -
1788459741 23.33° C 50% 999.8 hPa 1.27 mm - - -
1788457941 23.33° C 50% 1000.2 hPa 1.02 mm - - -
1788456141 23.33° C 50% 999.9 hPa 0.76 mm - - -

* Rain latest hour (hover to see other rain measurements)
** Current wind speed in m/s (hover to see current wind gust speed)